Weather History for KQIR - October, 2012

Change the Weather History Date:

Monday, October 8, 2012

  Actual Average Record
Temperature  
Mean Temperature 90 °F -  
Max Temperature 103 °F - - ()
Min Temperature 76 °F - - ()
Cooling Degree Days 24    
Growing Degree Days 40 (Base 50)    
Moisture  
Dew Point 64 °F    
Average Humidity 52    
Maximum Humidity 81    
Minimum Humidity 10    
Precipitation  
Precipitation 0.00 in - - ()
Sea Level Pressure  
Sea Level Pressure 29.87 in    
Wind  
Wind Speed 3 mph ()    
Max Wind Speed 14 mph    
Max Gust Speed -    
Visibility 6.1 miles    
Events      
T = Trace of Precipitation, MM = Missing Value Source: Averaged Metar Reports

Daily Weather History Graph

Daily Weather History Graph

Search for Another Location

Airport or City:

Trip Planner

Search our weather history database for the weather conditions in past years. The results will help you decide how hot, cold, wet, or windy it might be!

Date:

Astronomy

Oct. 08, 2012 Rise Set
Actual Time 5:29 AM AST 5:14 PM AST
Civil Twilight 5:06 AM AST 5:37 PM AST
Nautical Twilight 4:40 AM AST 6:03 PM AST
Astronomical Twilight 4:13 AM AST 6:30 PM AST
Moon 11:21 PM AST (10/8) 12:09 PM AST (10/8)
Length of Visible Light 12h 30m
Length of Day
11h 44m
Waning Gibbous, 49% of the Moon is Illuminated
Oct 8
Waning Gibbous
Oct 15
New
Oct 22
First Quarter
Oct 29
Full
Nov 7
Last Quarter

Hourly Weather History & Observations

Time (AST) Temp. Heat Index Dew Point Humidity Pressure Visibility Wind Dir Wind Speed Gust Speed Precip Events Conditions
12:55 AM 82.8 °F 89.0 °F 73.6 °F 74% 29.87 in 6.2 mi Calm Calm - N/A   Clear
1:55 AM 82.6 °F 88.8 °F 73.8 °F 75% 29.86 in 6.2 mi ENE 3.5 mph - N/A   Clear
2:55 AM 80.4 °F 85.0 °F 73.4 °F 79% 29.86 in 6.2 mi Calm Calm - N/A   Clear
3:55 AM 76.1 °F - 68.7 °F 78% 29.87 in 6.2 mi Calm Calm - N/A   Clear
4:55 AM 76.8 °F - 70.3 °F 80% 29.88 in 5.0 mi Calm Calm - N/A   Clear
5:55 AM 76.5 °F - 70.3 °F 81% 29.90 in 5.0 mi Calm Calm - N/A   Clear
6:55 AM 80.2 °F 83.6 °F 70.5 °F 72% 29.92 in 6.2 mi Calm Calm - N/A   Clear
7:55 AM 86.7 °F 95.9 °F 74.8 °F 68% 29.93 in 6.2 mi Calm Calm - N/A   Clear
8:55 AM 90.5 °F 98.6 °F 72.9 °F 56% 29.93 in 6.2 mi Calm Calm - N/A   Clear
9:55 AM 96.6 °F 97.7 °F 62.1 °F 32% 29.91 in 6.2 mi Calm Calm - N/A   Clear
10:55 AM 99.5 °F - 49.8 °F 19% 29.89 in 6.2 mi Calm Calm - N/A   Clear
11:55 AM 101.8 °F - 52.2 °F 19% 29.86 in 6.2 mi Variable 4.6 mph - N/A   Clear
12:55 PM 103.1 °F - 45.9 °F 14% 29.84 in 6.2 mi NNE 9.2 mph - N/A   Clear
1:55 PM 103.3 °F - 41.2 °F 12% 29.82 in 6.2 mi NE 8.1 mph - N/A   Clear
2:55 PM 102.6 °F - 37.0 °F 10% 29.81 in 6.2 mi ENE 13.8 mph - N/A   Clear
3:55 PM 100.8 °F - 38.7 °F 12% 29.81 in 6.2 mi ENE 13.8 mph - N/A   Clear
4:55 PM 96.6 °F - 51.4 °F 22% 29.83 in 6.2 mi ENE 11.5 mph - N/A   Clear
5:55 PM 91.4 °F 93.2 °F 64.4 °F 41% 29.84 in 6.2 mi Variable 6.9 mph - N/A   Clear
6:55 PM 89.6 °F 97.2 °F 72.5 °F 57% 29.86 in 6.2 mi ENE 9.2 mph - N/A   Unknown
7:55 PM 88.3 °F 95.9 °F 72.7 °F 60% 29.87 in 6.2 mi ENE 8.1 mph - N/A   Clear
8:55 PM 87.4 °F 95.3 °F 73.4 °F 63% 29.88 in 6.2 mi Variable 5.8 mph - N/A   Clear
9:55 PM 84.9 °F 91.8 °F 73.2 °F 68% 29.88 in 6.2 mi East 4.6 mph - N/A   Clear
10:55 PM 84.4 °F 91.3 °F 73.8 °F 70% 29.86 in 6.2 mi East 5.8 mph - N/A   Clear
11:55 PM 82.6 °F 88.8 °F 73.8 °F 75% 29.85 in 6.2 mi East 4.6 mph - N/A   Clear